SL-8 DEB, 25028

Orbit data source: Space-Track

SL-8 DEB, 25028 is space debris in LEO originally from a launch on Wed, 16 Jun 1993 UTC launched from the Plesetsk Missile And Space Complex (PKMTR). Debris objects in space refer to the collection of defunct objects orbiting the Earth. Examples of debris include non-operational satellites, rocket bodies, and fragments generated from explosions, collisions, or faulty payload assembly.

Loading next visibility...
Identifier
25028, 1993-036D
Orbit
LEO
Country
Flag of CISCIS
Related business
Manufacturer
Unknown
Mission
Spacecraft
Bus & Motor
Unknown
Mass
Unknown
Launch date (UTC)
1993-06-16 (32 years ago)
Launch vehicle
Unknown
Launch site
Plesetsk Missile And Space Complex (PKMTR)
Object type
Payload
Rocket body
Debris
Shape & HBR
Unknown shape, 0.1 m
Radar Cross Section
Small (<0.1 m²)

Expand to show TLE details & history
Last TLE update: 18 hours ago

TLE from 18 hours ago
0 SL-8 DEB
1 25028U 93036D   25286.78626265  .00001646  00000-0  51636-3 0  9994
2 25028  74.0425  44.2464 0010624 306.9035 205.2784 14.41348623568388
Epoch: 2025-10-13T18:52Z
TLE epoch observation values (Epoch: 2025-10-13T18:52:13.092Z)
Latitude
26.75244°
Longitude
-89.6353°
Altitude
763.855 km
Speed
7.471 km/s
True Right ascension
14h 24m 00s
True Declination
26° 36' 52"
Sunlit
Object was in daylight at epoch
Visualization orbit readout
Latitude
Unknown
Longitude
Unknown
Altitude
Unknown
Speed
Unknown
Apparent Right ascension
Unknown
Apparent Declination
Unknown
Sunlit
N/A
Visualization observer readout
Local Sidereal Time
07:33:14
Azimuth
Unknown
Elevation
Unknown
Doppler factor
Unknown
Orbital elements
Apogee altitude
759.238 km
Perigee altitude
744.089 km
Semi-major axis
7,129.801 km
Eccentricity
0.00106
Inclination
74.0425°
RAAN
44.2464°
Arg. of periapsis
306.9035°
True anomaly
205.22648°
Mean anomaly
205.2784°
Eccentric anomaly
205.25243°
Mean motion
3.60518 °/min
Orbital period
99.86 mins
BSTAR
0.00051636

Documentation

Showing up to 5 results
|